Wind_Speed
31 30 29 29 29 29 28 27 27 26 26 28 27 27 27 26 25 23 23 22 20 19 18 18 17 16 15 15 16 16 15 14 13 13 13 13 12 12
28 28 28 28 27 26 26 26 26 26 25 27 27 27 26 25 24 24 23 23 21 19 18 17 16 15 14 13 14 14 14 14 13 13 13 12 11 11
28 28 27 26 26 25 25 25 25 25 24 25 27 26 26 25 24 23 22 22 21 19 17 16 15 14 14 14 14 14 14 14 14 13 12 11 10 10
27 27 26 26 26 26 26 26 25 25 25 25 26 26 26 25 25 24 23 22 21 19 17 16 15 14 14 15 15 15 15 15 14 13 12 11 10 10
27 27 27 27 27 28 27 27 26 26 26 25 25 26 26 26 26 25 24 23 21 19 17 16 15 16 17 17 18 17 17 16 15 14 13 12 12 11
29 29 29 29 30 30 29 29 29 28 27 26 26 27 27 27 27 27 25 23 21 19 18 17 17 18 20 20 20 20 19 18 17 16 15 14 14 13
34 33 32 32 32 32 32 31 31 30 29 28 27 27 27 27 27 27 26 24 21 20 20 19 18 19 21 22 24 23 22 21 20 19 19 18 17 16
39 38 37 37 36 35 35 34 33 33 32 30 28 28 28 28 28 28 27 25 22 21 21 20 20 20 22 24 26 26 24 24 23 22 21 20 19 18
44 43 42 41 40 39 37 36 36 35 34 32 30 29 28 28 27 27 27 26 24 22 21 21 21 21 22 23 24 25 25 25 24 23 22 21 20 20
45 44 43 42 41 40 39 38 37 37 36 35 33 31 30 29 29 28 28 27 26 25 24 22 21 21 22 22 23 24 24 24 23 22 21 20 20 20
42 41 40 40 39 39 39 38 38 38 37 37 36 34 33 31 31 30 29 28 27 27 26 25 25 23 22 21 21 23 25 24 23 22 22 21 21 20
38 37 37 37 38 38 38 39 39 38 38 37 37 36 35 34 33 32 31 30 29 29 28 26 25 24 23 23 21 22 23 23 23 23 22 21 20 20
34 33 34 35 37 38 39 39 39 39 39 38 37 36 35 34 34 34 34 33 32 31 31 29 27 26 25 25 24 23 22 21 21 21 21 20 20 19
29 30 30 32 34 36 37 39 40 40 40 39 39 38 37 35 35 34 34 34 34 33 33 32 30 29 28 27 26 24 24 23 22 22 21 21 21 21
27 27 27 27 29 31 33 35 37 38 39 40 40 39 39 38 37 36 35 35 34 34 34 34 33 32 31 29 28 26 25 25 24 23 23 22 21 21
28 27 27 26 26 26 27 29 31 33 35 37 39 40 41 40 39 38 37 36 35 35 35 34 34 34 34 33 32 30 29 27 26 25 24 24 23 24
31 31 29 28 28 27 27 26 26 27 28 30 33 36 38 39 40 41 40 40 38 37 36 36 36 35 34 34 33 31 30 29 29 28 27 27 26 26
34 34 33 33 32 32 31 30 29 28 27 26 26 27 30 32 35 37 39 40 40 39 38 37 36 35 35 35 34 33 31 30 30 29 29 29 28 28
35 35 35 35 35 35 35 35 33 32 30 29 27 25 25 26 27 30 33 35 36 36 37 37 37 37 36 36 35 34 33 32 31 31 30 30 29 29
35 36 36 36 36 37 38 38 38 37 36 34 32 30 28 26 26 26 27 29 31 33 32 33 33 34 35 35 34 34 35 33 32 31 30 30 30 28
34 35 35 35 36 37 38 40 41 41 41 40 38 36 34 32 30 28 27 26 26 28 28 29 29 30 31 32 31 31 32 32 32 31 30 29 29 27
32 33 34 35 35 36 37 39 41 43 44 44 44 43 41 39 37 36 34 32 30 29 29 28 28 28 28 28 29 28 28 29 30 29 30 30 30 28
30 31 32 33 33 33 34 35 38 41 43 45 45 46 46 45 45 44 43 40 38 36 34 33 32 31 30 29 30 29 27 27 28 29 29 29 30 30
Wind_Direction
268 268 268 269 271 274 277 280 282 284 285 288 288 288 287 286 285 284 285 287 288 287 284 282 281 275 267 255 255 255 249 241 227 208 192 183 185 190
268 269 270 271 272 274 277 280 283 285 286 287 288 288 286 285 283 282 282 283 285 284 281 282 282 274 263 250 243 238 231 221 207 197 190 190 194 199
269 271 271 271 272 274 277 280 283 285 286 287 288 288 286 284 282 283 281 280 282 279 276 278 278 271 255 242 234 224 217 211 204 199 198 201 207 214
273 272 272 273 274 275 276 277 280 283 286 286 287 287 284 282 281 281 281 280 280 274 272 273 273 265 252 237 226 218 212 209 207 207 209 212 219 228
276 275 276 276 275 275 276 276 277 281 283 285 285 284 282 280 278 278 280 278 277 271 266 267 269 262 248 235 224 217 213 212 213 216 218 222 229 237
278 278 278 278 277 276 276 275 275 278 280 281 281 280 279 277 275 275 278 276 273 269 266 265 267 260 248 235 225 220 218 219 220 224 228 234 241 248
278 278 279 279 279 277 276 275 275 275 276 276 276 276 276 275 274 274 276 274 270 267 263 265 267 265 255 238 228 225 225 225 227 232 235 241 247 253
277 277 277 277 278 277 276 274 274 273 273 273 272 270 270 271 271 272 273 272 270 265 261 261 267 269 263 247 236 230 230 232 234 236 240 245 249 254
276 276 276 276 276 275 274 273 272 271 270 270 268 267 265 265 266 268 268 268 265 262 260 260 264 267 266 257 250 240 233 232 235 239 244 248 250 256
276 275 275 274 273 272 272 270 269 268 266 265 264 262 261 260 260 260 262 264 265 263 262 263 263 264 261 256 253 249 242 236 236 239 244 248 252 256
276 275 274 272 270 269 267 266 265 264 263 261 260 259 257 256 256 257 259 260 261 261 262 263 261 258 255 254 253 249 243 240 238 240 243 247 250 255
274 272 270 268 265 264 263 262 261 260 260 259 258 257 256 256 256 256 255 255 256 257 257 258 255 252 252 250 250 247 243 239 237 237 240 243 248 253
275 272 269 266 263 261 260 259 258 257 257 256 257 256 256 256 256 255 254 253 253 253 253 252 250 246 246 246 249 248 243 240 236 234 236 241 248 252
277 275 272 268 266 263 261 260 259 258 257 256 255 255 255 254 254 254 253 251 250 250 250 249 249 247 247 247 249 248 246 243 239 237 239 244 250 253
278 277 275 273 269 267 264 262 260 259 258 257 257 256 254 253 252 252 252 251 250 248 248 248 247 247 248 247 247 248 248 246 242 240 242 246 251 255
276 276 275 275 273 272 271 269 266 263 261 260 259 258 256 253 252 252 250 249 249 247 246 246 247 248 249 249 249 250 250 250 249 247 247 250 253 256
274 274 273 272 273 273 272 272 271 270 267 263 260 258 257 255 253 252 250 249 247 247 247 246 246 247 249 250 249 250 251 251 250 250 249 250 252 254
274 273 272 271 270 270 270 270 270 270 270 269 266 263 260 257 254 252 251 248 247 246 245 246 246 247 248 249 250 250 250 250 251 251 251 251 251 252
277 275 272 270 269 268 267 266 266 266 265 266 266 265 263 259 256 253 251 249 248 248 247 246 246 247 248 249 249 250 251 250 249 250 250 250 250 249
282 279 275 272 269 267 265 264 262 261 260 260 260 260 261 259 258 256 253 251 247 247 246 246 246 247 247 248 248 249 248 248 248 248 249 249 249 247
288 284 279 274 270 267 264 262 261 259 257 256 255 254 254 254 253 253 251 250 250 250 248 246 247 247 248 248 247 246 248 248 248 248 247 247 247 245
294 290 285 280 275 270 265 262 261 259 256 255 254 252 252 251 250 249 249 249 248 248 249 248 247 246 247 248 248 246 244 248 249 247 246 245 246 245
303 297 292 287 282 276 270 266 262 260 258 256 255 253 250 248 247 247 248 247 247 246 246 247 248 248 248 249 251 251 247 245 248 249 247 246 246 246
Height
5806 5806 5807 5807 5808 5808 5808 5807 5807 5807 5807 5805 5804 5804 5804 5803 5802 5802 5802 5801 5801 5800 5800 5799 5799 5798 5798 5798 5798 5799 5800 5801 5801 5802 5803 5805 5807 5809
5798 5799 5799 5800 5800 5800 5800 5800 5800 5800 5800 5798 5797 5797 5797 5797 5796 5796 5796 5796 5796 5795 5795 5795 5794 5794 5794 5794 5794 5795 5797 5798 5799 5800 5802 5803 5806 5808
5791 5791 5792 5792 5793 5793 5793 5793 5793 5793 5793 5792 5791 5790 5790 5791 5791 5791 5791 5791 5791 5790 5790 5790 5790 5790 5790 5790 5791 5792 5794 5795 5797 5798 5800 5802 5804 5805
5784 5784 5784 5785 5785 5785 5786 5786 5786 5786 5786 5786 5784 5784 5784 5785 5785 5785 5786 5786 5786 5786 5786 5786 5786 5786 5787 5787 5788 5789 5791 5793 5795 5796 5798 5799 5801 5803
5777 5777 5777 5777 5778 5778 5778 5779 5779 5779 5779 5779 5778 5778 5778 5779 5779 5780 5780 5780 5780 5780 5780 5781 5781 5782 5783 5784 5785 5787 5788 5790 5792 5793 5795 5797 5798 5799
5769 5769 5769 5769 5770 5770 5770 5771 5771 5772 5772 5772 5772 5771 5772 5772 5773 5774 5774 5774 5775 5775 5775 5776 5776 5777 5778 5779 5781 5783 5785 5786 5788 5790 5792 5793 5794 5795
5761 5761 5761 5761 5761 5761 5762 5762 5763 5764 5764 5765 5765 5765 5765 5766 5766 5767 5768 5768 5768 5769 5770 5770 5770 5771 5772 5774 5776 5778 5780 5782 5784 5785 5787 5788 5789 5790
5751 5751 5751 5752 5752 5752 5753 5753 5754 5755 5756 5756 5757 5758 5759 5759 5760 5760 5761 5762 5763 5764 5764 5764 5764 5765 5766 5767 5769 5771 5774 5776 5778 5780 5781 5782 5783 5785
5739 5740 5741 5741 5742 5742 5743 5743 5744 5745 5746 5747 5748 5749 5751 5751 5752 5753 5754 5755 5756 5757 5757 5757 5758 5759 5760 5760 5762 5765 5767 5770 5772 5774 5775 5776 5777 5778
5727 5728 5728 5729 5730 5731 5732 5733 5734 5735 5736 5737 5738 5740 5741 5743 5744 5746 5747 5748 5749 5750 5751 5752 5752 5753 5753 5754 5756 5758 5760 5763 5765 5767 5769 5770 5771 5772
5714 5715 5716 5717 5718 5720 5721 5722 5723 5724 5725 5726 5728 5729 5731 5733 5735 5737 5739 5740 5742 5743 5744 5745 5746 5747 5747 5748 5749 5751 5753 5756 5758 5761 5762 5764 5765 5766
5702 5703 5704 5705 5706 5708 5709 5711 5712 5713 5715 5716 5717 5719 5721 5723 5725 5727 5729 5731 5733 5735 5736 5738 5739 5740 5740 5741 5743 5744 5746 5749 5751 5753 5756 5757 5758 5760
5692 5693 5693 5694 5695 5696 5697 5699 5700 5702 5704 5706 5707 5709 5711 5713 5715 5717 5719 5721 5724 5726 5728 5730 5731 5733 5733 5734 5736 5738 5740 5742 5744 5746 5748 5750 5752 5753
5683 5683 5683 5683 5684 5685 5686 5687 5689 5691 5693 5695 5697 5699 5701 5703 5704 5706 5708 5711 5713 5716 5718 5721 5722 5724 5726 5728 5729 5730 5732 5735 5737 5739 5741 5743 5745 5746
5675 5675 5675 5674 5674 5675 5675 5676 5678 5680 5681 5683 5685 5687 5690 5691 5693 5696 5698 5700 5703 5706 5708 5711 5713 5715 5717 5720 5722 5723 5725 5727 5730 5732 5734 5736 5738 5739
5667 5667 5667 5666 5666 5666 5666 5667 5668 5669 5670 5672 5673 5675 5678 5680 5682 5685 5687 5690 5693 5695 5698 5700 5703 5705 5708 5710 5713 5715 5718 5720 5722 5724 5726 5729 5730 5732
5658 5658 5658 5658 5658 5658 5658 5659 5659 5660 5660 5661 5663 5664 5666 5668 5670 5673 5675 5678 5681 5684 5687 5690 5692 5695 5697 5700 5703 5706 5708 5711 5713 5715 5718 5720 5723 5724
5648 5648 5648 5648 5649 5649 5649 5650 5651 5651 5652 5653 5653 5654 5656 5657 5659 5661 5663 5666 5669 5673 5676 5678 5681 5684 5687 5690 5693 5696 5699 5701 5703 5706 5708 5711 5714 5715
5637 5637 5637 5637 5637 5638 5638 5639 5641 5642 5643 5644 5645 5646 5647 5648 5649 5651 5652 5655 5657 5661 5664 5666 5669 5673 5676 5680 5683 5686 5688 5691 5693 5696 5698 5700 5703 5706
5626 5625 5625 5625 5625 5625 5626 5627 5628 5630 5632 5634 5636 5637 5639 5640 5641 5642 5644 5646 5648 5650 5653 5655 5658 5661 5665 5669 5672 5674 5677 5680 5683 5685 5688 5690 5693 5696
5613 5612 5612 5612 5612 5612 5613 5613 5614 5616 5618 5621 5624 5626 5628 5631 5632 5634 5636 5638 5640 5642 5644 5647 5649 5651 5654 5658 5661 5664 5666 5669 5672 5675 5678 5680 5683 5686
5602 5600 5598 5598 5598 5598 5599 5600 5600 5601 5604 5607 5610 5613 5616 5618 5621 5623 5626 5629 5631 5633 5636 5638 5640 5643 5645 5648 5650 5654 5657 5659 5661 5665 5668 5671 5673 5677
5591 5589 5586 5585 5584 5584 5585 5585 5586 5586 5589 5592 5595 5598 5601 5604 5607 5610 5613 5616 5620 5623 5626 5628 5631 5634 5636 5639 5641 5644 5648 5651 5653 5655 5658 5661 5664 5667